Regional Weather Roundup
Issued by NWS

Home | Current Version | Previous Version | Text Only | Print | Product List | Glossary On
Versions: 1 2 3 4 5 6 7 8 9 10 11 12 13 14 15 16 17 18 19 20 21 22 23 24 25 26 27 28 29 30 31 32 33 34 35 36 37 38 39 40 41 42 43 44 45 46 47 48 49 50
000
ASUS43 KMKX 311900
RWRWI

WISCONSIN REGIONAL WEATHER ROUNDUP
NATIONAL WEATHER SERVICE MILWAUKEE/SULLIVAN WI
200 PM CDT FRI JUL 31 2015

NOTE: "FAIR" INDICATES FEW OR NO CLOUDS BELOW 12,000 FEET WITH NO
SIGNIFICANT WEATHER AND/OR OBSTRUCTIONS TO VISIBILITY.

WIZ001-002-006>008-014>016-023>028-312000-
NORTHWEST WISCONSIN

CITY           SKY/WX    TMP DP  RH WIND       PRES   REMARKS
SUPERIOR ARPT  LGT RAIN  71  55  55 W14G21    29.95F
ASHLAND        MOSUNNY   78  55  44 W12G18    29.94F
HAYWARD        PTSUNNY   77  50  38 W12G18    29.98F
SIREN          PTSUNNY   78  52  40 NW16G22   30.01F
CUMBERLAND     PTSUNNY   73  50  43 NW14G20   30.02F
RICE LAKE      MOSUNNY   75  54  49 W13G23    30.03S
CHETEK         PTSUNNY   76  55  47 W10G22    30.01F
LADYSMITH      MOSUNNY   76  50  39 NW18G25   30.01S
EAU CLAIRE     NOT AVBL
MENOMONIE      MOSUNNY   80  49  34 W20       30.02F
NEW RICHMOND   MOSUNNY   77  51  39 W21       30.04F
OSCEOLA        SUNNY     78  52  40 NW15      30.06S
$$

WIZ003>005-009-010-017-018-312000-
NORTH CENTRAL WISCONSIN

CITY           SKY/WX    TMP DP  RH WIND       PRES   REMARKS
MANITOWISH WTR CLOUDY    73  53  49 NW17G23   29.95R
ARBOR VITAE    PTSUNNY   77  52  42 W15G23    29.94F
WOODRUFF       PTSUNNY   77  52  42 W15G23    29.94F
RHINELANDER    PTSUNNY   76  50  40 NW14G23   29.95S
EAGLE RIVER    PTSUNNY   73  50  43 NW14G21   29.93S
LAND O LAKES   MOSUNNY   74  47  38 NW17G28   29.94S
PHILLIPS       PTSUNNY   73  51  44 W13G23    29.96F
TOMAHAWK       MOSUNNY   75  51  42 W13G23    29.96S
MEDFORD        PTSUNNY   74  53  47 NW15G24   29.98F
MERRILL        NOT AVBL
$$

WIZ029-030-035-036-043>047-312000-
CENTRAL WISCONSIN

CITY           SKY/WX    TMP DP  RH WIND       PRES   REMARKS
WAUSAU         MOSUNNY   81  50  33 W24G31    29.94F HX  80
MOSINEE        PTSUNNY   75  52  43 NW16G25   29.97F
MARSHFIELD     MOSUNNY   79  50  36 NW21G28   29.98F
STEVENS POINT  PTSUNNY   75  51  41 W12G24    29.97S
WAUPACA        MOSUNNY   81  48  31 NW16G26   29.94F HX  80
WAUTOMA        NOT AVBL
WISC RAPIDS    MOSUNNY   80  48  32 NW20G30   29.99S
CAMP DOUGLAS   NOT AVBL
$$

WIZ011>013-019>022-031-037>040-048>050-312000-
NORTHEAST WISCONSIN

CITY           SKY/WX    TMP DP  RH WIND       PRES   REMARKS
ANTIGO         PTSUNNY   77  53  43 NW20G25   29.94F
SHAWANO        PTSUNNY   81  50  33 W13G24    29.91F HX  80
OCONTO         PTSUNNY   82  52  35 W17G26    29.87S HX  81
STURGEON BAY   SUNNY     81  54  39 W17       29.89S HX  80
GREEN BAY      MOSUNNY   82  54  37 NW16G24   29.90F HX  81
MANITOWOC      NOT AVBL
APPLETON       PTSUNNY   79  46  31 W17G29    29.94S
CLINTONVILLE   MOSUNNY   81  45  28 NW21G31   29.92F
OSHKOSH        PTSUNNY   78  50  37 W17G25    29.93F
$$

WIZ032>034-041-042-053>061-312000-
SOUTHWEST WISCONSIN

CITY           SKY/WX    TMP DP  RH WIND       PRES   REMARKS
LA CROSSE      SUNNY     83  51  33 NW20      30.01F HX  81
SPARTA         MOSUNNY   81  45  28 NW22G28   30.02F HX  80
VIROQUA        SUNNY     77  50  38 NW20G25   30.04F
BOSCOBEL       SUNNY     85  50  29 W16G26    30.02F HX  83
PRAIRIE DU CHI SUNNY     83  47  27 NW14G22   30.03F HX  81
PLATTEVILLE    SUNNY     82  52  36 NW17G24   30.03F HX  81
$$

WIZ056-057-062-063-064-067-068-312000-
SOUTH CENTRAL WISCONSIN

CITY           SKY/WX    TMP DP  RH WIND       PRES   REMARKS
REEDSBURG      MOSUNNY   81  49  33 W20G30    29.99F HX  80
BARABOO/DELLS  SUNNY     80  44  27 NW17G25   30.00S
LONE ROCK      NOT AVBL
MINERAL POINT  SUNNY     81  48  32 W13G20    30.03F HX  80
MADISON        MOSUNNY   80  49  33 NW13G29   29.98F
MIDDLETON      SUNNY     82  43  25 NW20G28   29.99F HX  80
WATERTOWN      MOSUNNY   80  53  38 W16       29.97S HX  80
MONROE         SUNNY     81  48  32 W20G28    30.01F HX  80
JANESVILLE     MOSUNNY   84  45  24 NW22G28   29.98F HX  82
$$

WIZ051-052-058>065-066-070>072-312000-
SOUTHEAST WISCONSIN

CITY           SKY/WX    TMP DP  RH WIND       PRES   REMARKS
MILWAUKEE      MOSUNNY   84  48  28 NW17G28   29.93F HX  82
WAUKESHA       MOSUNNY   81  46  30 W23G30    29.97S HX  80
MILWAUKEE/TIMM NOT AVBL
RACINE         LGT RAIN  84  46  26 NW18G29   29.96S HX  82
BURLINGTON     SUNNY     81  46  28 W17G28    29.97S HX  80
KENOSHA        SUNNY     83  52  34 W17G32    29.95F HX  82
FOND DU LAC    MOSUNNY   81  52  36 NW20G28   29.94F HX  80
SHEBOYGAN      MOSUNNY   80  52  37 W13G25    29.92F HX  80
WEST BEND      MOSUNNY   79  45  29 NW23G30   29.95S
JUNEAU         SUNNY     78  51  39 W13G21    29.97F
$$

LSZ147-162-312000-
LAKE SUPERIOR

STATION/POSITION TIME  TEMP    WIND        PRES    WAVE
                       AIR SEA DIR/SP/G            HT/PER
                 (UTC) (F)     (DEG/KT/KT) (MB)    (FT/S)
W MID LAKE BUOY  1750   59 54  270/ 14/ 16 1011.8F   2/ 4
DEVILS ISLAND    1800   62     250/ 12/ 15 1013.1F
PORT WING        1800   70     270/ 11/ 14 1014.2F
SAXON HARBOR     1800   69                 1013.5
$$

LMZ867-665-643>646-312000-
LAKE MICHIGAN

STATION/POSITION TIME  TEMP    WIND        PRES    WAVE
                       AIR SEA DIR/SP/G            HT/PER
                 (UTC) (F)     (DEG/KT/KT) (MB)    (FT/S)
CHAMBERS ISLAND  1800   74     300/  6/ 10 1010.8F
S GREEN BAY BUOY 1800   72 71  280/ 10/ 14 1013.2F
N MID LAKE BUOY  1750   70 68  230/  8/ 10 1010.2F   2/ 4
NORTHPORT PIER   1800   77     300/ 10/ 20 1010.5F
SISTER BAY       1814   79     310/ 14/ 15   N/A
ALGOMA LAKESHORE 1727          260/ 11/ 20   N/A
KEWAUNEE LAKESHO 1800   78     300/  8/ 16 1011.5F
SHEBOYGAN LAKESH 1800   78     280/ 20/ 26 1013.1F
PORT WASHINGTON  1840   83     300/ 12/ 19 1013.9F
ATWATER BUOY     1800   75 64  300/ 14/ 19 1015.1F
MILWAUKEE LAKESH 1800   80     290/ 18/ 25   N/A
KENOSHA   LAKESH 1800   82     280/ 21/ 26 1013.2F
$$

TC  - TEMPERATURE IN CELSIUS
VSB - VISIBILITY IN STATUTE MILES
WCI - WIND CHILL INDEX
HX  - HEAT INDEX



USA.gov is the U.S. government's official web portal to all federal, state and local government web resources and services.